Time,TemperatureF,DewpointF,PressureIn,WindDirection,WindDirectionDegrees,WindSpeedMPH,WindSpeedGustMPH,Humidity,HourlyPrecipIn,Conditions,Clouds,dailyrainin,SoftwareType,DateUTC
2013-05-19 00:01:00,61.5,37.0,29.91,SE,135,2.6,0.0,40,0.00,CLR,,0.00,WeatherDisplay:10.37,2013-05-19 04:01:00,
2013-05-19 00:06:00,61.5,37.0,29.91,SE,135,2.6,0.0,40,0.00,CLR,,0.00,WeatherDisplay:10.37,2013-05-19 04:06:00,
2013-05-19 00:11:00,61.5,36.3,29.91,SE,135,2.6,0.0,39,0.00,CLR,,0.00,WeatherDisplay:10.37,2013-05-19 04:11:00,
2013-05-19 00:16:00,61.5,37.0,29.91,SE,135,2.6,0.0,40,0.00,CLR,,0.00,WeatherDisplay:10.37,2013-05-19 04:16:00,
2013-05-19 00:21:00,61.5,37.0,29.92,SE,135,2.6,0.0,40,0.00,CLR,,0.00,WeatherDisplay:10.37,2013-05-19 04:21:00,
2013-05-19 00:26:00,61.5,36.3,29.92,SE,135,2.6,0.0,39,0.00,CLR,,0.00,WeatherDisplay:10.37,2013-05-19 04:26:00,
2013-05-19 00:31:00,61.5,36.3,29.92,SE,135,2.6,0.0,39,0.00,CLR,,0.00,WeatherDisplay:10.37,2013-05-19 04:31:00,
2013-05-19 00:36:00,59.4,34.4,29.92,NE,45,2.6,0.0,39,0.00,CLR,,0.00,WeatherDisplay:10.37,2013-05-19 04:36:00,
2013-05-19 00:41:00,59.4,34.4,29.92,NE,45,1.3,0.0,39,0.00,CLR,,0.00,WeatherDisplay:10.37,2013-05-19 04:41:00,
2013-05-19 00:46:00,59.4,34.4,29.92,NE,45,1.3,0.0,39,0.00,CLR,,0.00,WeatherDisplay:10.37,2013-05-19 04:46:00,
2013-05-19 00:51:00,59.0,34.1,29.93,NNE,22,1.3,1.3,39,0.00,CLR,,0.00,WeatherDisplay:10.37,2013-05-19 04:51:00,
2013-05-19 00:56:00,59.0,34.1,29.92,SW,225,1.3,0.0,39,0.00,CLR,,0.00,WeatherDisplay:10.37,2013-05-19 04:56:00,
2013-05-19 01:01:00,58.6,33.7,29.93,WNW,292,1.3,0.0,39,0.00,CLR,,0.00,WeatherDisplay:10.37,2013-05-19 05:01:00,
2013-05-19 01:06:00,58.5,33.6,29.92,NE,45,1.3,0.0,39,0.00,CLR,,0.00,WeatherDisplay:10.37,2013-05-19 05:06:00,
2013-05-19 01:11:00,58.5,33.6,29.92,NE,45,0.0,0.0,39,0.00,CLR,,0.00,WeatherDisplay:10.37,2013-05-19 05:11:00,
2013-05-19 01:16:00,58.5,33.6,29.92,NE,45,0.0,0.0,39,0.00,CLR,,0.00,WeatherDisplay:10.37,2013-05-19 05:16:00,
2013-05-19 01:21:00,57.7,32.9,29.92,NE,45,0.0,0.0,39,0.00,CLR,,0.00,WeatherDisplay:10.37,2013-05-19 05:21:00,
2013-05-19 01:26:00,57.7,32.9,29.92,NE,45,0.0,0.0,39,0.00,CLR,,0.00,WeatherDisplay:10.37,2013-05-19 05:26:00,
2013-05-19 01:31:00,57.7,32.9,29.92,NE,45,0.0,0.0,39,0.00,CLR,,0.00,WeatherDisplay:10.37,2013-05-19 05:31:00,
2013-05-19 01:36:00,57.4,32.0,29.92,East,90,0.0,0.0,38,0.00,CLR,,0.00,WeatherDisplay:10.37,2013-05-19 05:36:00,
2013-05-19 01:41:00,57.2,31.8,29.92,East,90,0.0,0.0,38,0.00,CLR,,0.00,WeatherDisplay:10.37,2013-05-19 05:41:00,
2013-05-19 01:46:00,57.0,31.6,29.92,NNE,22,1.2,0.0,38,0.00,CLR,,0.00,WeatherDisplay:10.37,2013-05-19 05:46:00,
2013-05-19 01:51:00,57.0,31.6,29.92,NNE,22,1.2,0.0,38,0.00,CLR,,0.00,WeatherDisplay:10.37,2013-05-19 05:51:00,
2013-05-19 01:56:00,56.7,31.3,29.92,NNE,22,1.2,0.0,38,0.00,CLR,,0.00,WeatherDisplay:10.37,2013-05-19 05:56:00,
2013-05-19 02:01:00,56.7,31.3,29.93,NNE,22,1.2,0.0,38,0.00,CLR,,0.00,WeatherDisplay:10.37,2013-05-19 06:01:00,
2013-05-19 02:06:00,56.3,31.0,29.92,NNE,22,1.2,1.2,38,0.00,CLR,,0.00,WeatherDisplay:10.37,2013-05-19 06:06:00,
2013-05-19 02:11:00,56.3,31.0,29.92,NNE,22,1.2,1.2,38,0.00,CLR,,0.00,WeatherDisplay:10.37,2013-05-19 06:11:00,
2013-05-19 02:16:00,55.8,30.5,29.93,NNE,22,1.2,0.0,38,0.00,CLR,,0.00,WeatherDisplay:10.37,2013-05-19 06:16:00,
2013-05-19 02:21:00,55.6,30.4,29.92,North,0,1.2,0.0,38,0.00,CLR,,0.00,WeatherDisplay:10.37,2013-05-19 06:21:00,
2013-05-19 02:26:00,55.6,30.4,29.92,North,0,1.2,0.0,38,0.00,CLR,,0.00,WeatherDisplay:10.37,2013-05-19 06:26:00,
2013-05-19 02:31:00,55.4,30.2,29.92,North,0,1.2,0.0,38,0.00,CLR,,0.00,WeatherDisplay:10.37,2013-05-19 06:31:00,
2013-05-19 02:36:00,55.2,30.0,29.92,NE,45,1.2,0.0,38,0.00,CLR,,0.00,WeatherDisplay:10.37,2013-05-19 06:36:00,
2013-05-19 02:41:00,55.2,30.0,29.93,NE,45,1.2,0.0,38,0.00,CLR,,0.00,WeatherDisplay:10.37,2013-05-19 06:41:00,
2013-05-19 02:46:00,55.2,30.0,29.93,NE,45,1.2,0.0,38,0.00,CLR,,0.00,WeatherDisplay:10.37,2013-05-19 06:46:00,
2013-05-19 02:51:00,54.9,29.7,29.93,NE,45,1.2,0.0,38,0.00,CLR,,0.00,WeatherDisplay:10.37,2013-05-19 06:51:00,
2013-05-19 02:56:00,54.9,29.7,29.93,ENE,67,1.2,0.0,38,0.00,CLR,,0.00,WeatherDisplay:10.37,2013-05-19 06:56:00,
2013-05-19 03:01:00,54.9,29.7,29.93,ENE,67,1.2,0.0,38,0.00,CLR,,0.00,WeatherDisplay:10.37,2013-05-19 07:01:00,
2013-05-19 03:06:00,54.7,29.5,29.92,ENE,67,1.2,0.0,38,0.00,CLR,,0.00,WeatherDisplay:10.37,2013-05-19 07:06:00,
2013-05-19 03:11:00,54.3,29.2,29.92,ENE,67,0.0,0.0,38,0.00,CLR,,0.00,WeatherDisplay:10.37,2013-05-19 07:11:00,
2013-05-19 03:16:00,54.3,29.2,29.93,ENE,67,0.0,0.0,38,0.00,CLR,,0.00,WeatherDisplay:10.37,2013-05-19 07:16:00,
2013-05-19 03:21:00,54.1,29.1,29.93,ENE,67,0.0,0.0,38,0.00,CLR,,0.00,WeatherDisplay:10.37,2013-05-19 07:21:00,
2013-05-19 03:26:00,54.1,29.1,29.87,ENE,67,0.0,0.0,38,0.00,CLR,,0.00,WeatherDisplay:10.37,2013-05-19 07:26:00,
2013-05-19 03:31:00,54.1,29.1,29.87,ENE,67,0.0,0.0,38,0.00,CLR,,0.00,WeatherDisplay:10.37,2013-05-19 07:31:00,
2013-05-19 03:36:00,53.8,28.7,29.87,ENE,67,0.0,0.0,38,0.00,CLR,,0.00,WeatherDisplay:10.37,2013-05-19 07:36:00,
2013-05-19 03:41:00,53.8,28.7,29.87,ENE,67,0.0,0.0,38,0.00,CLR,,0.00,WeatherDisplay:10.37,2013-05-19 07:41:00,
2013-05-19 03:46:00,53.8,28.7,29.87,ENE,67,0.0,0.0,38,0.00,CLR,,0.00,WeatherDisplay:10.37,2013-05-19 07:46:00,
2013-05-19 03:51:00,53.2,28.3,29.88,NNE,22,1.2,1.2,38,0.00,CLR,,0.00,WeatherDisplay:10.37,2013-05-19 07:51:00,
2013-05-19 03:56:00,53.2,28.3,29.88,NNE,22,1.2,1.2,38,0.00,CLR,,0.00,WeatherDisplay:10.37,2013-05-19 07:56:00,
2013-05-19 04:01:00,52.9,27.9,29.89,NE,45,1.2,0.0,38,0.00,CLR,,0.00,WeatherDisplay:10.37,2013-05-19 08:01:00,
2013-05-19 04:06:00,52.9,27.9,29.89,NE,45,1.2,0.0,38,0.00,CLR,,0.00,WeatherDisplay:10.37,2013-05-19 08:06:00,
2013-05-19 04:11:00,52.9,27.9,29.89,NE,45,0.0,0.0,38,0.00,CLR,,0.00,WeatherDisplay:10.37,2013-05-19 08:11:00,
2013-05-19 04:16:00,52.9,27.3,29.89,NE,45,0.0,0.0,37,0.00,CLR,,0.00,WeatherDisplay:10.37,2013-05-19 08:16:00,
2013-05-19 04:21:00,52.9,27.3,29.89,ENE,67,0.0,0.0,37,0.00,CLR,,0.00,WeatherDisplay:10.37,2013-05-19 08:21:00,
2013-05-19 04:26:00,52.7,27.1,29.89,ENE,67,0.0,0.0,37,0.00,CLR,,0.00,WeatherDisplay:10.37,2013-05-19 08:26:00,
2013-05-19 04:31:00,52.7,27.1,29.90,ENE,67,0.0,0.0,37,0.00,CLR,,0.00,WeatherDisplay:10.37,2013-05-19 08:31:00,
2013-05-19 04:36:00,52.5,27.0,29.90,ENE,67,0.0,0.0,37,0.00,CLR,,0.00,WeatherDisplay:10.37,2013-05-19 08:36:00,
2013-05-19 04:41:00,52.3,26.8,29.90,ENE,67,0.0,0.0,37,0.00,CLR,,0.00,WeatherDisplay:10.37,2013-05-19 08:41:00,
2013-05-19 04:46:00,52.3,26.8,29.90,ENE,67,0.0,0.0,37,0.00,CLR,,0.00,WeatherDisplay:10.37,2013-05-19 08:46:00,
2013-05-19 04:51:00,52.3,26.8,29.91,ENE,67,0.0,0.0,37,0.00,CLR,,0.00,WeatherDisplay:10.37,2013-05-19 08:51:00,
2013-05-19 04:56:00,52.3,26.8,29.91,ENE,67,0.0,0.0,37,0.00,CLR,,0.00,WeatherDisplay:10.37,2013-05-19 08:56:00,
2013-05-19 05:01:00,52.0,26.5,29.91,ENE,67,0.0,0.0,37,0.00,CLR,,0.00,WeatherDisplay:10.37,2013-05-19 09:01:00,
2013-05-19 05:06:00,52.0,26.5,29.91,ENE,67,0.0,0.0,37,0.00,CLR,,0.00,WeatherDisplay:10.37,2013-05-19 09:06:00,
2013-05-19 05:11:00,52.0,26.5,29.92,ENE,67,0.0,0.0,37,0.00,CLR,,0.00,WeatherDisplay:10.37,2013-05-19 09:11:00,
2013-05-19 05:16:00,52.0,26.5,29.92,ENE,67,0.0,0.0,37,0.00,CLR,,0.00,WeatherDisplay:10.37,2013-05-19 09:16:00,
2013-05-19 05:21:00,52.0,26.5,29.92,ENE,67,0.0,0.0,37,0.00,CLR,,0.00,WeatherDisplay:10.37,2013-05-19 09:21:00,
2013-05-19 05:26:00,52.0,26.5,29.93,ENE,67,0.0,0.0,37,0.00,CLR,,0.00,WeatherDisplay:10.37,2013-05-19 09:26:00,
2013-05-19 05:31:00,51.6,26.2,29.93,ENE,67,0.0,0.0,37,0.00,CLR,,0.00,WeatherDisplay:10.37,2013-05-19 09:31:00,
2013-05-19 05:36:00,51.4,26.0,29.93,ENE,67,0.0,0.0,37,0.00,CLR,,0.00,WeatherDisplay:10.37,2013-05-19 09:36:00,
2013-05-19 05:41:00,51.3,25.8,29.93,ENE,67,0.0,0.0,37,0.00,CLR,,0.00,WeatherDisplay:10.37,2013-05-19 09:41:00,
2013-05-19 05:46:00,51.3,25.8,29.93,ENE,67,0.0,0.0,37,0.00,CLR,,0.00,WeatherDisplay:10.37,2013-05-19 09:46:00,
2013-05-19 05:51:00,51.3,25.8,29.93,ENE,67,0.0,0.0,37,0.00,CLR,,0.00,WeatherDisplay:10.37,2013-05-19 09:51:00,
2013-05-19 05:56:00,51.3,25.8,29.93,ENE,67,0.0,0.0,37,0.00,CLR,,0.00,WeatherDisplay:10.37,2013-05-19 09:56:00,
2013-05-19 06:01:00,51.3,25.8,29.93,ENE,67,0.0,0.0,37,0.00,CLR,,0.00,WeatherDisplay:10.37,2013-05-19 10:01:00,
2013-05-19 06:06:00,51.3,25.8,29.95,ENE,67,0.0,0.0,37,0.00,CLR,,0.00,WeatherDisplay:10.37,2013-05-19 10:06:00,
2013-05-19 06:11:00,51.1,25.7,29.95,ENE,67,0.0,0.0,37,0.00,CLR,,0.00,WeatherDisplay:10.37,2013-05-19 10:11:00,
2013-05-19 06:16:00,51.1,25.7,29.95,ENE,67,0.0,0.0,37,0.00,CLR,,0.00,WeatherDisplay:10.37,2013-05-19 10:16:00,
2013-05-19 06:21:00,51.1,25.7,29.95,ENE,67,0.0,0.0,37,0.00,CLR,,0.00,WeatherDisplay:10.37,2013-05-19 10:21:00,
2013-05-19 06:26:00,51.1,25.7,29.95,ENE,67,0.0,0.0,37,0.00,CLR,,0.00,WeatherDisplay:10.37,2013-05-19 10:26:00,
2013-05-19 06:31:00,51.1,25.0,29.90,ENE,67,0.0,0.0,36,0.00,CLR,,0.00,WeatherDisplay:10.37,2013-05-19 10:31:00,
2013-05-19 06:36:00,51.1,25.7,29.95,ENE,67,0.0,0.0,37,0.00,CLR,,0.00,WeatherDisplay:10.37,2013-05-19 10:36:00,
2013-05-19 06:41:00,51.4,26.0,29.96,ENE,67,0.0,0.0,37,0.00,CLR,,0.00,WeatherDisplay:10.37,2013-05-19 10:41:00,
2013-05-19 06:46:00,51.4,26.0,29.90,ENE,67,0.0,0.0,37,0.00,CLR,,0.00,WeatherDisplay:10.37,2013-05-19 10:46:00,
2013-05-19 06:51:00,51.4,26.0,29.91,ENE,67,0.0,0.0,37,0.00,CLR,,0.00,WeatherDisplay:10.37,2013-05-19 10:51:00,
2013-05-19 06:56:00,51.8,26.3,29.91,ENE,67,1.2,1.2,37,0.00,CLR,,0.00,WeatherDisplay:10.37,2013-05-19 10:56:00,
2013-05-19 07:01:00,52.2,26.6,29.92,ENE,67,1.2,1.2,37,0.00,CLR,,0.00,WeatherDisplay:10.37,2013-05-19 11:01:00,
2013-05-19 07:06:00,52.2,26.6,29.92,ENE,67,1.2,1.2,37,0.00,CLR,,0.00,WeatherDisplay:10.37,2013-05-19 11:06:00,
2013-05-19 07:11:00,52.2,26.6,29.91,ENE,67,1.2,1.2,37,0.00,CLR,,0.00,WeatherDisplay:10.37,2013-05-19 11:11:00,
2013-05-19 07:16:00,52.2,26.6,29.92,ENE,67,1.2,1.2,37,0.00,CLR,,0.00,WeatherDisplay:10.37,2013-05-19 11:16:00,
2013-05-19 07:21:00,52.2,26.6,29.92,ENE,67,1.2,1.2,37,0.00,CLR,,0.00,WeatherDisplay:10.37,2013-05-19 11:21:00,
2013-05-19 07:26:00,52.2,26.6,29.92,ENE,67,1.2,1.2,37,0.00,CLR,,0.00,WeatherDisplay:10.37,2013-05-19 11:26:00,
2013-05-19 07:31:00,55.0,29.2,29.91,ENE,67,1.2,1.2,37,0.00,CLR,,0.00,WeatherDisplay:10.37,2013-05-19 11:31:00,
2013-05-19 07:36:00,55.0,29.2,29.92,ENE,67,1.2,1.2,37,0.00,CLR,,0.00,WeatherDisplay:10.37,2013-05-19 11:36:00,
2013-05-19 07:41:00,56.3,30.3,29.93,ENE,67,1.2,0.0,37,0.00,CLR,,0.00,WeatherDisplay:10.37,2013-05-19 11:41:00,
2013-05-19 07:46:00,56.8,30.8,29.93,ENE,67,1.2,0.0,37,0.00,CLR,,0.00,WeatherDisplay:10.37,2013-05-19 11:46:00,
2013-05-19 07:51:00,57.4,31.3,29.93,ENE,67,1.2,1.7,37,0.00,CLR,,0.00,WeatherDisplay:10.37,2013-05-19 11:51:00,
2013-05-19 07:56:00,57.7,31.6,29.93,ENE,67,2.8,2.8,37,0.00,CLR,,0.00,WeatherDisplay:10.37,2013-05-19 11:56:00,
2013-05-19 08:01:00,57.9,31.8,29.93,ENE,67,2.8,2.8,37,0.00,CLR,,0.00,WeatherDisplay:10.37,2013-05-19 12:01:00,
2013-05-19 08:06:00,58.3,32.1,29.93,ENE,67,2.8,2.8,37,0.00,CLR,,0.00,WeatherDisplay:10.37,2013-05-19 12:06:00,
2013-05-19 08:11:00,59.2,32.9,29.92,ENE,67,1.7,2.6,37,0.00,CLR,,0.00,WeatherDisplay:10.37,2013-05-19 12:11:00,
2013-05-19 08:16:00,59.5,33.2,29.93,ENE,67,2.6,2.6,37,0.00,CLR,,0.00,WeatherDisplay:10.37,2013-05-19 12:16:00,
2013-05-19 08:21:00,59.9,33.5,29.93,ENE,67,2.6,2.6,37,0.00,CLR,,0.00,WeatherDisplay:10.37,2013-05-19 12:21:00,
2013-05-19 08:26:00,60.3,33.9,29.93,ENE,67,3.5,3.5,37,0.00,CLR,,0.00,WeatherDisplay:10.37,2013-05-19 12:26:00,
2013-05-19 08:31:00,61.3,34.8,29.92,ENE,67,3.5,3.5,37,0.00,CLR,,0.00,WeatherDisplay:10.37,2013-05-19 12:31:00,
2013-05-19 08:36:00,62.2,35.6,29.92,ENE,67,3.5,3.5,37,0.00,CLR,,0.00,WeatherDisplay:10.37,2013-05-19 12:36:00,
2013-05-19 08:41:00,63.7,36.9,29.92,ENE,67,3.5,3.5,37,0.00,CLR,,0.00,WeatherDisplay:10.37,2013-05-19 12:41:00,
2013-05-19 08:46:00,64.4,37.5,29.92,ENE,67,3.5,3.5,37,0.00,CLR,,0.00,WeatherDisplay:10.37,2013-05-19 12:46:00,
2013-05-19 08:51:00,64.4,37.5,29.92,ENE,67,3.5,3.5,37,0.00,CLR,,0.00,WeatherDisplay:10.37,2013-05-19 12:51:00,
2013-05-19 08:56:00,65.3,38.3,29.92,ENE,67,3.5,3.5,37,0.00,CLR,,0.00,WeatherDisplay:10.37,2013-05-19 12:56:00,
2013-05-19 09:01:00,67.6,40.4,29.92,ENE,67,3.5,3.5,37,0.00,CLR,,0.00,WeatherDisplay:10.37,2013-05-19 13:01:00,
2013-05-19 09:06:00,68.9,41.5,29.91,ENE,67,3.5,3.5,37,0.00,CLR,,0.00,WeatherDisplay:10.37,2013-05-19 13:06:00,
2013-05-19 09:11:00,70.0,42.5,29.92,ENE,67,3.5,0.0,37,0.00,CLR,,0.00,WeatherDisplay:10.37,2013-05-19 13:11:00,
2013-05-19 09:16:00,70.0,43.2,29.91,ENE,67,3.5,3.5,38,0.00,CLR,,0.00,WeatherDisplay:10.37,2013-05-19 13:16:00,
2013-05-19 09:21:00,72.5,45.4,29.92,East,90,3.5,3.5,38,0.00,CLR,,0.00,WeatherDisplay:10.37,2013-05-19 13:21:00,
2013-05-19 09:26:00,73.0,45.9,29.92,East,90,3.8,3.8,38,0.00,CLR,,0.00,WeatherDisplay:10.37,2013-05-19 13:26:00,
2013-05-19 09:31:00,73.0,45.9,29.91,East,90,3.8,3.8,38,0.00,CLR,,0.00,WeatherDisplay:10.37,2013-05-19 13:31:00,
2013-05-19 09:36:00,74.1,46.9,29.92,East,90,3.8,3.8,38,0.00,CLR,,0.00,WeatherDisplay:10.37,2013-05-19 13:36:00,
2013-05-19 09:41:00,75.0,47.7,29.92,East,90,3.8,3.8,38,0.00,CLR,,0.00,WeatherDisplay:10.37,2013-05-19 13:41:00,
2013-05-19 09:46:00,75.9,48.5,29.92,East,90,3.8,3.8,38,0.00,CLR,,0.00,WeatherDisplay:10.37,2013-05-19 13:46:00,
2013-05-19 09:51:00,76.5,49.0,29.92,East,90,3.8,3.8,38,0.00,CLR,,0.00,WeatherDisplay:10.37,2013-05-19 13:51:00,
2013-05-19 09:56:00,76.6,49.1,29.91,East,90,3.8,3.8,38,0.00,CLR,,0.00,WeatherDisplay:10.37,2013-05-19 13:56:00,
2013-05-19 10:01:00,76.8,50.0,29.92,East,90,3.8,3.8,39,0.00,CLR,,0.00,WeatherDisplay:10.37,2013-05-19 14:01:00,
2013-05-19 10:06:00,76.8,50.0,29.92,East,90,3.8,3.8,39,0.00,CLR,,0.00,WeatherDisplay:10.37,2013-05-19 14:06:00,
2013-05-19 10:11:00,78.6,51.6,29.92,SSE,157,2.3,2.3,39,0.00,CLR,,0.00,WeatherDisplay:10.37,2013-05-19 14:11:00,
2013-05-19 10:16:00,80.1,52.9,29.91,SSE,157,2.3,2.3,39,0.00,CLR,,0.00,WeatherDisplay:10.37,2013-05-19 14:16:00,
2013-05-19 10:21:00,80.2,53.7,29.91,SSE,157,2.4,2.4,40,0.00,CLR,,0.00,WeatherDisplay:10.37,2013-05-19 14:21:00,
2013-05-19 10:26:00,80.8,53.5,29.91,SSE,157,3.5,3.5,39,0.00,CLR,,0.00,WeatherDisplay:10.37,2013-05-19 14:26:00,
2013-05-19 10:31:00,81.1,54.5,29.91,SSE,157,3.6,3.6,40,0.00,CLR,,0.00,WeatherDisplay:10.37,2013-05-19 14:31:00,
2013-05-19 10:36:00,81.1,54.5,29.91,SSE,157,3.6,3.6,40,0.00,CLR,,0.00,WeatherDisplay:10.37,2013-05-19 14:36:00,
2013-05-19 10:41:00,82.4,55.7,29.91,SSE,157,3.6,3.6,40,0.00,CLR,,0.00,WeatherDisplay:10.37,2013-05-19 14:41:00,
2013-05-19 10:46:00,83.7,57.5,29.91,SSE,157,3.6,3.6,41,0.00,CLR,,0.00,WeatherDisplay:10.37,2013-05-19 14:46:00,
2013-05-19 10:51:00,84.7,58.4,29.90,SE,135,3.6,3.6,41,0.00,CLR,,0.00,WeatherDisplay:10.37,2013-05-19 14:51:00,
2013-05-19 10:56:00,85.3,58.9,29.89,SE,135,3.6,3.6,41,0.00,CLR,,0.00,WeatherDisplay:10.37,2013-05-19 14:56:00,
2013-05-19 11:01:00,85.8,59.4,29.89,SE,135,3.6,3.6,41,0.00,CLR,,0.00,WeatherDisplay:10.37,2013-05-19 15:01:00,
2013-05-19 11:06:00,85.5,59.1,29.90,SE,135,3.6,3.6,41,0.00,CLR,,0.00,WeatherDisplay:10.37,2013-05-19 15:06:00,
2013-05-19 11:11:00,86.4,59.9,29.90,SE,135,1.7,1.7,41,0.00,CLR,,0.00,WeatherDisplay:10.37,2013-05-19 15:11:00,
2013-05-19 11:16:00,86.7,60.2,29.89,North,0,1.7,4.5,41,0.00,CLR,,0.00,WeatherDisplay:10.37,2013-05-19 15:16:00,
2013-05-19 11:21:00,86.5,60.0,29.90,North,0,4.6,4.6,41,0.00,CLR,,0.00,WeatherDisplay:10.37,2013-05-19 15:21:00,
2013-05-19 11:26:00,87.4,60.8,29.89,SE,135,4.6,4.6,41,0.00,CLR,,0.00,WeatherDisplay:10.37,2013-05-19 15:26:00,
2013-05-19 11:31:00,88.9,62.1,29.89,SE,135,4.6,4.6,41,0.00,CLR,,0.00,WeatherDisplay:10.37,2013-05-19 15:31:00,
2013-05-19 11:36:00,88.3,61.7,29.89,SE,135,4.6,4.6,41,0.00,CLR,,0.00,WeatherDisplay:10.37,2013-05-19 15:36:00,
2013-05-19 11:41:00,89.4,62.6,29.88,SE,135,4.6,4.6,41,0.00,CLR,,0.00,WeatherDisplay:10.37,2013-05-19 15:41:00,
2013-05-19 11:46:00,89.2,62.5,29.88,SE,135,4.6,4.6,41,0.00,CLR,,0.00,WeatherDisplay:10.37,2013-05-19 15:46:00,
2013-05-19 11:51:00,89.8,62.9,29.93,SE,135,4.6,4.6,41,0.00,CLR,,0.00,WeatherDisplay:10.37,2013-05-19 15:51:00,
2013-05-19 11:56:00,89.8,62.2,29.93,SE,135,4.6,4.6,40,0.00,CLR,,0.00,WeatherDisplay:10.37,2013-05-19 15:56:00,
2013-05-19 12:01:00,90.5,62.9,29.90,SE,135,4.6,4.6,40,0.00,CLR,,0.00,WeatherDisplay:10.37,2013-05-19 16:01:00,
2013-05-19 12:06:00,90.9,63.2,29.89,SE,135,4.6,4.6,40,0.00,CLR,,0.00,WeatherDisplay:10.37,2013-05-19 16:06:00,
2013-05-19 12:11:00,91.4,63.7,29.89,SE,135,3.8,3.8,40,0.00,CLR,,0.00,WeatherDisplay:10.37,2013-05-19 16:11:00,
2013-05-19 12:16:00,91.9,64.2,29.89,SE,135,3.8,3.8,40,0.00,CLR,,0.00,WeatherDisplay:10.37,2013-05-19 16:16:00,
2013-05-19 12:21:00,92.1,65.0,29.89,SE,135,3.8,3.8,41,0.00,CLR,,0.00,WeatherDisplay:10.37,2013-05-19 16:21:00,
2013-05-19 12:26:00,92.1,65.0,29.89,SE,135,3.8,3.8,41,0.00,CLR,,0.00,WeatherDisplay:10.37,2013-05-19 16:26:00,
2013-05-19 12:31:00,92.5,65.4,29.88,SE,135,3.8,3.8,41,0.00,CLR,,0.00,WeatherDisplay:10.37,2013-05-19 16:31:00,
2013-05-19 12:36:00,92.3,65.2,29.87,SE,135,3.8,3.8,41,0.00,CLR,,0.00,WeatherDisplay:10.37,2013-05-19 16:36:00,
2013-05-19 12:41:00,91.8,65.4,29.87,SE,135,3.8,3.8,42,0.00,CLR,,0.00,WeatherDisplay:10.37,2013-05-19 16:41:00,
2013-05-19 12:46:00,92.3,65.9,29.87,SE,135,4.6,4.6,42,0.00,CLR,,0.00,WeatherDisplay:10.37,2013-05-19 16:46:00,
2013-05-19 12:51:00,92.1,66.4,29.86,SE,135,4.6,4.6,43,0.00,CLR,,0.00,WeatherDisplay:10.37,2013-05-19 16:51:00,
2013-05-19 12:56:00,92.7,66.2,29.86,SE,135,4.6,4.6,42,0.00,CLR,,0.00,WeatherDisplay:10.37,2013-05-19 16:56:00,
2013-05-19 13:01:00,93.2,67.4,29.85,SE,135,4.6,4.6,43,0.00,CLR,,0.00,WeatherDisplay:10.37,2013-05-19 17:01:00,
2013-05-19 13:06:00,92.3,66.6,29.84,SE,135,4.6,4.6,43,0.00,CLR,,0.00,WeatherDisplay:10.37,2013-05-19 17:06:00,
2013-05-19 13:11:00,91.9,66.2,29.84,SE,135,3.5,3.5,43,0.00,CLR,,0.00,WeatherDisplay:10.37,2013-05-19 17:11:00,
2013-05-19 13:16:00,91.9,66.2,29.83,SE,135,3.5,3.5,43,0.00,CLR,,0.00,WeatherDisplay:10.37,2013-05-19 17:16:00,
2013-05-19 13:21:00,93.7,68.5,29.82,SE,135,4.6,4.6,44,0.00,CLR,,0.00,WeatherDisplay:10.37,2013-05-19 17:21:00,
2013-05-19 13:26:00,93.6,68.4,29.82,SE,135,4.6,4.6,44,0.00,CLR,,0.00,WeatherDisplay:10.37,2013-05-19 17:26:00,
2013-05-19 13:31:00,93.7,68.5,29.81,SE,135,4.6,4.6,44,0.00,CLR,,0.00,WeatherDisplay:10.37,2013-05-19 17:31:00,
2013-05-19 13:36:00,93.6,68.4,29.87,SE,135,4.6,4.6,44,0.00,CLR,,0.00,WeatherDisplay:10.37,2013-05-19 17:36:00,
2013-05-19 13:41:00,93.6,68.4,29.86,SE,135,5.8,5.8,44,0.00,CLR,,0.00,WeatherDisplay:10.37,2013-05-19 17:41:00,
2013-05-19 13:46:00,94.1,68.2,29.85,SE,135,5.8,5.8,43,0.00,CLR,,0.00,WeatherDisplay:10.37,2013-05-19 17:46:00,
2013-05-19 13:51:00,93.7,67.9,29.84,SE,135,5.8,5.8,43,0.00,CLR,,0.00,WeatherDisplay:10.37,2013-05-19 17:51:00,
2013-05-19 13:56:00,93.6,67.0,29.84,SE,135,5.8,5.8,42,0.00,CLR,,0.00,WeatherDisplay:10.37,2013-05-19 17:56:00,
2013-05-19 14:01:00,94.1,68.2,29.83,SE,135,5.8,5.8,43,0.00,CLR,,0.00,WeatherDisplay:10.37,2013-05-19 18:01:00,
2013-05-19 14:06:00,94.3,67.7,29.82,SE,135,5.8,5.8,42,0.00,CLR,,0.00,WeatherDisplay:10.37,2013-05-19 18:06:00,
2013-05-19 14:11:00,93.7,67.2,29.82,SE,135,1.7,1.7,42,0.00,CLR,,0.00,WeatherDisplay:10.37,2013-05-19 18:11:00,
2013-05-19 14:16:00,94.1,67.5,29.81,SE,135,1.7,1.7,42,0.00,CLR,,0.00,WeatherDisplay:10.37,2013-05-19 18:16:00,
2013-05-19 14:21:00,93.7,67.9,29.80,SE,135,2.3,2.8,43,0.00,CLR,,0.00,WeatherDisplay:10.37,2013-05-19 18:21:00,
2013-05-19 14:26:00,93.7,67.2,29.80,SE,135,3.8,3.8,42,0.00,CLR,,0.00,WeatherDisplay:10.37,2013-05-19 18:26:00,
2013-05-19 14:31:00,95.2,69.2,29.80,SE,135,3.8,3.8,43,0.00,CLR,,0.00,WeatherDisplay:10.37,2013-05-19 18:31:00,
2013-05-19 14:36:00,95.5,68.8,29.79,SE,135,3.8,3.8,42,0.00,CLR,,0.00,WeatherDisplay:10.37,2013-05-19 18:36:00,
2013-05-19 14:41:00,95.5,69.5,29.78,SE,135,3.8,3.8,43,0.00,CLR,,0.00,WeatherDisplay:10.37,2013-05-19 18:41:00,
2013-05-19 14:46:00,94.6,68.7,29.79,SE,135,4.6,4.6,43,0.00,CLR,,0.00,WeatherDisplay:10.37,2013-05-19 18:46:00,
2013-05-19 14:51:00,94.1,68.2,29.84,SE,135,4.6,4.6,43,0.00,CLR,,0.00,WeatherDisplay:10.37,2013-05-19 18:51:00,
2013-05-19 14:56:00,94.1,67.5,29.84,West,270,4.6,4.6,42,0.00,CLR,,0.00,WeatherDisplay:10.37,2013-05-19 18:56:00,
2013-05-19 15:01:00,94.1,68.2,29.84,West,270,4.6,4.6,43,0.00,CLR,,0.00,WeatherDisplay:10.37,2013-05-19 19:01:00,
2013-05-19 15:06:00,93.0,67.2,29.84,West,270,4.6,4.6,43,0.00,CLR,,0.00,WeatherDisplay:10.37,2013-05-19 19:06:00,
2013-05-19 15:11:00,93.0,67.2,29.83,WSW,247,4.6,4.6,43,0.00,CLR,,0.00,WeatherDisplay:10.37,2013-05-19 19:11:00,
2013-05-19 15:16:00,93.9,68.0,29.84,WSW,247,3.5,3.5,43,0.00,CLR,,0.00,WeatherDisplay:10.37,2013-05-19 19:16:00,
2013-05-19 15:21:00,92.8,67.1,29.83,NNW,337,3.5,3.5,43,0.00,CLR,,0.00,WeatherDisplay:10.37,2013-05-19 19:21:00,
2013-05-19 15:26:00,92.1,66.4,29.82,SSW,202,3.5,3.5,43,0.00,CLR,,0.00,WeatherDisplay:10.37,2013-05-19 19:26:00,
2013-05-19 15:31:00,92.1,66.4,29.82,SSW,202,3.8,3.8,43,0.00,CLR,,0.00,WeatherDisplay:10.37,2013-05-19 19:31:00,
2013-05-19 15:36:00,93.4,67.5,29.81,SW,225,3.8,3.8,43,0.00,CLR,,0.00,WeatherDisplay:10.37,2013-05-19 19:36:00,
2013-05-19 15:41:00,93.2,67.4,29.81,SSW,202,3.8,3.8,43,0.00,CLR,,0.00,WeatherDisplay:10.37,2013-05-19 19:41:00,
2013-05-19 15:46:00,93.2,67.4,29.80,SSW,202,3.8,3.8,43,0.00,CLR,,0.00,WeatherDisplay:10.37,2013-05-19 19:46:00,
2013-05-19 15:51:00,92.3,66.6,29.80,SSW,202,5.8,5.8,43,0.00,CLR,,0.00,WeatherDisplay:10.37,2013-05-19 19:51:00,
2013-05-19 15:56:00,92.5,66.7,29.80,SSW,202,5.8,5.8,43,0.00,CLR,,0.00,WeatherDisplay:10.37,2013-05-19 19:56:00,
2013-05-19 16:01:00,92.5,66.7,29.79,ESE,112,5.8,5.8,43,0.00,CLR,,0.00,WeatherDisplay:10.37,2013-05-19 20:01:00,
2013-05-19 16:06:00,92.1,66.4,29.79,ESE,112,5.8,5.8,43,0.00,CLR,,0.00,WeatherDisplay:10.37,2013-05-19 20:06:00,
2013-05-19 16:11:00,92.3,66.6,29.79,ESE,112,3.5,3.5,43,0.00,CLR,,0.00,WeatherDisplay:10.37,2013-05-19 20:11:00,
2013-05-19 16:16:00,91.4,65.8,29.78,ESE,112,3.8,3.8,43,0.00,CLR,,0.00,WeatherDisplay:10.37,2013-05-19 20:16:00,
2013-05-19 16:21:00,90.9,65.3,29.78,SSE,157,3.8,3.8,43,0.00,CLR,,0.00,WeatherDisplay:10.37,2013-05-19 20:21:00,
2013-05-19 16:26:00,90.0,63.8,29.77,WSW,247,3.8,3.8,42,0.00,CLR,,0.00,WeatherDisplay:10.37,2013-05-19 20:26:00,
2013-05-19 16:31:00,90.0,63.8,29.76,WSW,247,3.8,3.8,42,0.00,CLR,,0.00,WeatherDisplay:10.37,2013-05-19 20:31:00,
2013-05-19 16:36:00,90.5,64.3,29.76,WSW,247,3.8,3.8,42,0.00,CLR,,0.00,WeatherDisplay:10.37,2013-05-19 20:36:00,
2013-05-19 16:41:00,90.0,63.8,29.75,WSW,247,3.8,3.8,42,0.00,CLR,,0.00,WeatherDisplay:10.37,2013-05-19 20:41:00,
2013-05-19 16:46:00,89.1,63.0,29.75,WSW,247,4.0,4.7,42,0.00,CLR,,0.00,WeatherDisplay:10.37,2013-05-19 20:46:00,
2013-05-19 16:51:00,89.1,63.0,29.74,SW,225,4.7,4.7,42,0.00,CLR,,0.00,WeatherDisplay:10.37,2013-05-19 20:51:00,
2013-05-19 16:56:00,89.4,63.3,29.74,SW,225,4.7,4.7,42,0.00,CLR,,0.00,WeatherDisplay:10.37,2013-05-19 20:56:00,
2013-05-19 17:01:00,89.4,63.3,29.73,SW,225,4.7,4.7,42,0.00,CLR,,0.00,WeatherDisplay:10.37,2013-05-19 21:01:00,
2013-05-19 17:06:00,89.6,63.5,29.73,NNE,22,4.7,4.7,42,0.00,CLR,,0.00,WeatherDisplay:10.37,2013-05-19 21:06:00,
2013-05-19 17:11:00,89.1,63.0,29.73,SE,135,4.6,4.6,42,0.00,CLR,,0.00,WeatherDisplay:10.37,2013-05-19 21:11:00,
2013-05-19 17:16:00,88.7,62.7,29.73,SW,225,4.6,4.6,42,0.00,CLR,,0.00,WeatherDisplay:10.37,2013-05-19 21:16:00,
2013-05-19 17:21:00,89.1,63.0,29.79,SW,225,4.6,4.6,42,0.00,CLR,,0.00,WeatherDisplay:10.37,2013-05-19 21:21:00,
2013-05-19 17:26:00,89.1,63.0,29.79,WSW,247,4.6,4.6,42,0.00,CLR,,0.00,WeatherDisplay:10.37,2013-05-19 21:26:00,
2013-05-19 17:31:00,88.5,62.5,29.79,South,180,4.6,4.6,42,0.00,CLR,,0.00,WeatherDisplay:10.37,2013-05-19 21:31:00,
2013-05-19 17:36:00,88.0,62.0,29.79,SSE,157,4.6,4.6,42,0.00,CLR,,0.00,WeatherDisplay:10.37,2013-05-19 21:36:00,
2013-05-19 17:41:00,87.8,62.5,29.78,NNE,22,4.6,0.0,43,0.00,CLR,,0.00,WeatherDisplay:10.37,2013-05-19 21:41:00,
2013-05-19 17:46:00,86.9,61.7,29.78,ESE,112,4.6,4.6,43,0.00,CLR,,0.00,WeatherDisplay:10.37,2013-05-19 21:46:00,
2013-05-19 17:51:00,86.5,62.0,29.78,South,180,4.6,4.6,44,0.00,CLR,,0.00,WeatherDisplay:10.37,2013-05-19 21:51:00,
2013-05-19 17:56:00,86.2,61.7,29.77,ESE,112,4.6,4.6,44,0.00,CLR,,0.00,WeatherDisplay:10.37,2013-05-19 21:56:00,
2013-05-19 18:01:00,85.6,61.2,29.77,South,180,4.6,4.6,44,0.00,CLR,,0.00,WeatherDisplay:10.37,2013-05-19 22:01:00,
2013-05-19 18:06:00,85.5,61.1,29.76,SSW,202,4.9,4.9,44,0.00,CLR,,0.00,WeatherDisplay:10.37,2013-05-19 22:06:00,
2013-05-19 18:11:00,84.7,60.4,29.76,ENE,67,2.8,2.8,44,0.00,CLR,,0.00,WeatherDisplay:10.37,2013-05-19 22:11:00,
2013-05-19 18:16:00,84.4,60.7,29.75,SSE,157,3.5,3.5,45,0.00,CLR,,0.00,WeatherDisplay:10.37,2013-05-19 22:16:00,
2013-05-19 18:21:00,84.6,60.9,29.76,SE,135,3.5,3.5,45,0.00,CLR,,0.00,WeatherDisplay:10.37,2013-05-19 22:21:00,
2013-05-19 18:26:00,84.9,61.2,29.76,SSE,157,3.5,3.5,45,0.00,CLR,,0.00,WeatherDisplay:10.37,2013-05-19 22:26:00,
2013-05-19 18:31:00,84.7,61.0,29.75,SSE,157,3.5,3.5,45,0.00,CLR,,0.00,WeatherDisplay:10.37,2013-05-19 22:31:00,
2013-05-19 18:36:00,84.6,60.9,29.75,SE,135,3.5,3.5,45,0.00,CLR,,0.00,WeatherDisplay:10.37,2013-05-19 22:36:00,
2013-05-19 18:41:00,84.4,60.7,29.74,SE,135,3.6,3.6,45,0.00,CLR,,0.00,WeatherDisplay:10.37,2013-05-19 22:41:00,
2013-05-19 18:46:00,83.8,60.2,29.75,ENE,67,5.8,5.8,45,0.00,CLR,,0.00,WeatherDisplay:10.37,2013-05-19 22:46:00,
2013-05-19 18:51:00,83.5,59.9,29.74,ESE,112,5.8,5.8,45,0.00,CLR,,0.00,WeatherDisplay:10.37,2013-05-19 22:51:00,
2013-05-19 18:56:00,83.1,59.6,29.74,SSE,157,5.8,5.8,45,0.00,CLR,,0.00,WeatherDisplay:10.37,2013-05-19 22:56:00,
2013-05-19 19:01:00,82.8,59.9,29.73,NE,45,5.8,5.8,46,0.00,CLR,,0.00,WeatherDisplay:10.37,2013-05-19 23:01:00,
2013-05-19 19:06:00,82.6,59.1,29.73,SE,135,5.8,5.8,45,0.00,CLR,,0.00,WeatherDisplay:10.37,2013-05-19 23:06:00,
2013-05-19 19:11:00,82.2,58.8,29.73,SSE,157,4.0,4.0,45,0.00,CLR,,0.00,WeatherDisplay:10.37,2013-05-19 23:11:00,
2013-05-19 19:16:00,82.2,59.4,29.73,SSE,157,4.0,4.0,46,0.00,CLR,,0.00,WeatherDisplay:10.37,2013-05-19 23:16:00,
2013-05-19 19:21:00,82.0,58.6,29.73,ESE,112,4.0,4.0,45,0.00,CLR,,0.00,WeatherDisplay:10.37,2013-05-19 23:21:00,
2013-05-19 19:26:00,81.7,58.3,29.73,ESE,112,4.5,4.5,45,0.00,CLR,,0.00,WeatherDisplay:10.37,2013-05-19 23:26:00,
2013-05-19 19:31:00,81.5,58.7,29.74,NE,45,4.6,4.6,46,0.00,CLR,,0.00,WeatherDisplay:10.37,2013-05-19 23:31:00,
2013-05-19 19:36:00,81.5,58.1,29.74,South,180,4.6,4.6,45,0.00,CLR,,0.00,WeatherDisplay:10.37,2013-05-19 23:36:00,
2013-05-19 19:41:00,81.1,57.8,29.73,SSE,157,4.6,4.6,45,0.00,CLR,,0.00,WeatherDisplay:10.37,2013-05-19 23:41:00,
2013-05-19 19:46:00,81.0,57.6,29.73,ESE,112,4.6,4.6,45,0.00,CLR,,0.00,WeatherDisplay:10.37,2013-05-19 23:46:00,
2013-05-19 19:51:00,81.0,57.6,29.73,South,180,4.6,4.6,45,0.00,CLR,,0.00,WeatherDisplay:10.37,2013-05-19 23:51:00,
2013-05-19 19:56:00,81.0,57.6,29.73,South,180,4.6,4.6,45,0.00,CLR,,0.00,WeatherDisplay:10.37,2013-05-19 23:56:00,
2013-05-19 20:01:00,80.4,57.1,29.73,SE,135,4.6,4.6,45,0.00,CLR,,0.00,WeatherDisplay:10.37,2013-05-20 00:01:00,
2013-05-19 20:06:00,80.1,56.8,29.73,SW,225,4.6,4.6,45,0.00,CLR,,0.00,WeatherDisplay:10.37,2013-05-20 00:06:00,
2013-05-19 20:11:00,79.7,56.5,29.73,SSE,157,3.5,3.5,45,0.00,CLR,,0.00,WeatherDisplay:10.37,2013-05-20 00:11:00,
2013-05-19 20:16:00,79.5,56.3,29.73,SSE,157,3.5,3.5,45,0.00,CLR,,0.00,WeatherDisplay:10.37,2013-05-20 00:16:00,
2013-05-19 20:21:00,79.3,56.2,29.73,South,180,3.5,3.5,45,0.00,CLR,,0.00,WeatherDisplay:10.37,2013-05-20 00:21:00,
2013-05-19 20:26:00,79.0,55.8,29.72,SW,225,3.5,3.5,45,0.00,CLR,,0.00,WeatherDisplay:10.37,2013-05-20 00:26:00,
2013-05-19 20:31:00,79.0,55.8,29.72,SW,225,3.5,3.5,45,0.00,CLR,,0.00,WeatherDisplay:10.37,2013-05-20 00:31:00,
2013-05-19 20:36:00,78.6,56.1,29.72,SW,225,3.5,3.5,46,0.00,CLR,,0.00,WeatherDisplay:10.37,2013-05-20 00:36:00,
2013-05-19 20:41:00,78.3,55.8,29.72,SSE,157,3.5,3.5,46,0.00,CLR,,0.00,WeatherDisplay:10.37,2013-05-20 00:41:00,
2013-05-19 20:46:00,77.9,55.5,29.72,SSE,157,3.5,3.5,46,0.00,CLR,,0.00,WeatherDisplay:10.37,2013-05-20 00:46:00,
2013-05-19 20:51:00,77.9,55.5,29.72,SSE,157,3.5,3.5,46,0.00,CLR,,0.00,WeatherDisplay:10.37,2013-05-20 00:51:00,
2013-05-19 20:56:00,77.5,55.1,29.72,SSE,157,3.5,3.5,46,0.00,CLR,,0.00,WeatherDisplay:10.37,2013-05-20 00:56:00,
2013-05-19 21:01:00,77.5,55.1,29.72,SW,225,3.5,0.0,46,0.00,CLR,,0.00,WeatherDisplay:10.37,2013-05-20 01:01:00,
2013-05-19 21:06:00,76.8,54.5,29.72,SW,225,3.5,0.0,46,0.00,CLR,,0.00,WeatherDisplay:10.37,2013-05-20 01:06:00,
2013-05-19 21:11:00,76.6,54.3,29.72,ESE,112,0.3,0.3,46,0.00,CLR,,0.00,WeatherDisplay:10.37,2013-05-20 01:11:00,
2013-05-19 21:16:00,76.5,54.1,29.73,ENE,67,1.2,0.0,46,0.00,CLR,,0.00,WeatherDisplay:10.37,2013-05-20 01:16:00,
2013-05-19 21:21:00,76.1,53.8,29.74,ENE,67,1.7,1.7,46,0.00,CLR,,0.00,WeatherDisplay:10.37,2013-05-20 01:21:00,
2013-05-19 21:26:00,76.1,53.8,29.73,SW,225,1.7,1.7,46,0.00,CLR,,0.00,WeatherDisplay:10.37,2013-05-20 01:26:00,
2013-05-19 21:31:00,75.7,52.9,29.75,SSE,157,1.7,1.7,45,0.00,CLR,,0.00,WeatherDisplay:10.37,2013-05-20 01:31:00,
2013-05-19 21:36:00,75.6,52.7,29.75,ESE,112,1.7,1.7,45,0.00,CLR,,0.00,WeatherDisplay:10.37,2013-05-20 01:36:00,
2013-05-19 21:41:00,75.6,52.7,29.75,ESE,112,1.7,1.7,45,0.00,CLR,,0.00,WeatherDisplay:10.37,2013-05-20 01:41:00,
2013-05-19 21:46:00,75.0,52.2,29.75,SSE,157,2.6,0.0,45,0.00,CLR,,0.00,WeatherDisplay:10.37,2013-05-20 01:46:00,
2013-05-19 21:51:00,75.0,52.2,29.75,SSE,157,2.6,0.0,45,0.00,CLR,,0.00,WeatherDisplay:10.37,2013-05-20 01:51:00,
2013-05-19 21:56:00,74.5,51.7,29.75,SSE,157,2.6,0.0,45,0.00,CLR,,0.00,WeatherDisplay:10.37,2013-05-20 01:56:00,
2013-05-19 22:01:00,74.3,51.6,29.76,ENE,67,2.6,0.0,45,0.00,CLR,,0.00,WeatherDisplay:10.37,2013-05-20 02:01:00,
2013-05-19 22:06:00,73.9,51.3,29.76,SE,135,2.6,0.0,45,0.00,CLR,,0.00,WeatherDisplay:10.37,2013-05-20 02:06:00,
2013-05-19 22:11:00,73.8,50.5,29.75,SSE,157,2.3,2.3,44,0.00,CLR,,0.00,WeatherDisplay:10.37,2013-05-20 02:11:00,
2013-05-19 22:16:00,73.4,50.2,29.75,SSE,157,2.8,2.8,44,0.00,CLR,,0.00,WeatherDisplay:10.37,2013-05-20 02:16:00,
2013-05-19 22:21:00,73.0,49.8,29.76,NE,45,2.8,2.8,44,0.00,CLR,,0.00,WeatherDisplay:10.37,2013-05-20 02:21:00,
2013-05-19 22:26:00,73.0,49.8,29.76,East,90,2.8,2.8,44,0.00,CLR,,0.00,WeatherDisplay:10.37,2013-05-20 02:26:00,
2013-05-19 22:31:00,73.0,49.8,29.76,East,90,2.8,2.8,44,0.00,CLR,,0.00,WeatherDisplay:10.37,2013-05-20 02:31:00,
2013-05-19 22:36:00,72.7,49.5,29.76,SE,135,2.8,2.8,44,0.00,CLR,,0.00,WeatherDisplay:10.37,2013-05-20 02:36:00,
2013-05-19 22:41:00,72.5,48.7,29.77,SW,225,2.8,2.8,43,0.00,CLR,,0.00,WeatherDisplay:10.37,2013-05-20 02:41:00,
2013-05-19 22:46:00,72.5,49.3,29.77,SW,225,4.7,4.7,44,0.00,CLR,,0.00,WeatherDisplay:10.37,2013-05-20 02:46:00,
2013-05-19 22:51:00,72.5,49.3,29.77,SW,225,4.7,4.7,44,0.00,CLR,,0.00,WeatherDisplay:10.37,2013-05-20 02:51:00,
2013-05-19 22:56:00,72.3,48.6,29.77,SSW,202,4.7,4.7,43,0.00,CLR,,0.00,WeatherDisplay:10.37,2013-05-20 02:56:00,
2013-05-19 23:01:00,72.3,48.6,29.77,SSW,202,4.7,4.7,43,0.00,CLR,,0.00,WeatherDisplay:10.37,2013-05-20 03:01:00,
2013-05-19 23:06:00,72.1,48.4,29.77,ESE,112,4.7,4.7,43,0.00,CLR,,0.00,WeatherDisplay:10.37,2013-05-20 03:06:00,
2013-05-19 23:11:00,72.1,48.4,29.77,ESE,112,4.7,4.7,43,0.00,CLR,,0.00,WeatherDisplay:10.37,2013-05-20 03:11:00,
2013-05-19 23:16:00,72.1,48.4,29.77,SSW,202,4.0,4.0,43,0.00,CLR,,0.00,WeatherDisplay:10.37,2013-05-20 03:16:00,
2013-05-19 23:21:00,71.8,48.1,29.78,SE,135,4.0,4.0,43,0.00,CLR,,0.00,WeatherDisplay:10.37,2013-05-20 03:21:00,
2013-05-19 23:26:00,71.8,48.1,29.78,ENE,67,4.0,4.0,43,0.00,CLR,,0.00,WeatherDisplay:10.37,2013-05-20 03:26:00,
2013-05-19 23:31:00,71.6,47.9,29.77,SSE,157,4.0,4.0,43,0.00,CLR,,0.00,WeatherDisplay:10.37,2013-05-20 03:31:00,
2013-05-19 23:36:00,71.4,47.7,29.78,South,180,4.0,4.0,43,0.00,CLR,,0.00,WeatherDisplay:10.37,2013-05-20 03:36:00,
2013-05-19 23:41:00,71.4,47.1,29.78,South,180,4.0,4.0,42,0.00,CLR,,0.00,WeatherDisplay:10.37,2013-05-20 03:41:00,
2013-05-19 23:46:00,71.1,47.4,29.78,SSE,157,4.0,4.0,43,0.00,CLR,,0.00,WeatherDisplay:10.37,2013-05-20 03:46:00,
2013-05-19 23:51:00,71.1,47.4,29.79,SSW,202,4.0,4.0,43,0.00,CLR,,0.00,WeatherDisplay:10.37,2013-05-20 03:51:00,
2013-05-19 23:56:00,70.9,46.6,29.78,South,180,4.0,4.0,42,0.00,CLR,,0.00,WeatherDisplay:10.37,2013-05-20 03:56:00,